Home   Weather   Bergisch Gladbach   Past weeks

Flag for Germany Past Weather in Bergisch Gladbach, North Rhine-Westphalia, Germany — Yesterday and Last 2 Weeks

Now
48 °F

Passing clouds.


Feels Like: 44 °F
Forecast: 48 / 54 °F
Wind: 10 mph from Southeast

Location: Koeln / Bonn

Current Time: Apr 30, 2017 at 9:34:06 am

Latest Report: Apr 30, 2017 at 8:50 am


Visibility: N/A

Pressure: 29.95 "Hg

Humidity: 54%

Dew Point: 32 °F

Location of Bergisch GladbachLocation

Past Weather in Bergisch Gladbach — Graph

°F

Bergisch Gladbach Temperature Yesterday

Maximum temperature yesterday: 57 °F (at 5:50 pm)
Minimum temperature yesterday: 36 °F (at 5:50 am)
Average temperature yesterday: 46 °F

High & Low Weather Summary for the Past Weeks

 TemperatureHumidityPressure
High61 °F (Apr 24, 3:20 pm)100% (Apr 17, 3:20 am)30.63 "Hg (Apr 17, 3:20 am)
Low25 °F (Apr 20, 6:20 am)32% (Apr 20, 3:50 pm)29.68 "Hg (Apr 25, 2:50 am)
Average44 °F69%30.13 "Hg
* Reported Apr 15 8:20 am — Apr 30 8:20 am, Bergisch Gladbach, Weather by CustomWeather, © 2017

Note: Actual official high and low records may vary slightly from our data, if they occured in-between our weather recording intervals... More about our weather records

Advertising

Bergisch Gladbach Weather History for the Previous 24 Hours

Scroll right to see more
 ConditionsComfort  
Time TempWeatherWind HumidityBarometerVisibility
8:20 am
Sun, Apr 30
48 °FPassing clouds.8 mph54%29.95 "HgN/A
7:50 am45 °FPassing clouds.8 mph57%29.95 "HgN/A
7:20 am43 °FPassing clouds.6 mph61%29.95 "HgN/A
6:50 am41 °FPassing clouds.5 mph61%29.98 "HgN/A
6:20 am41 °FPassing clouds.3 mph61%29.98 "HgN/A
5:50 am41 °FPassing clouds.6 mph61%29.98 "HgN/A
5:20 am41 °FPassing clouds.6 mph61%29.98 "HgN/A
4:50 am39 °FClear.5 mph65%29.98 "Hg10 mi
4:20 am41 °FPassing clouds.3 mph61%29.98 "HgN/A
3:50 am41 °FClear.5 mph61%29.98 "Hg10 mi
3:20 am41 °FPassing clouds.3 mph61%29.98 "HgN/A
2:50 am41 °FPassing clouds.5 mph61%29.98 "HgN/A
2:20 am41 °FPassing clouds.3 mph66%29.98 "HgN/A
1:50 am41 °FPassing clouds.3 mph66%30.01 "HgN/A
1:20 am43 °FPassing clouds.5 mph61%30.01 "HgN/A
12:50 am45 °FPassing clouds.6 mph57%30.01 "HgN/A
12:20 am45 °FClear.9 mph57%30.01 "Hg10 mi
11:50 pm
Sat, Apr 29
46 °FPassing clouds.10 mph53%30.01 "HgN/A
11:20 pm46 °FClear.10 mph57%30.01 "Hg10 mi
10:50 pm45 °FClear.9 mph61%30.01 "Hg10 mi
10:20 pm46 °FClear.6 mph57%30.01 "Hg10 mi
9:50 pm46 °FClear.6 mph57%30.01 "Hg10 mi
9:20 pm46 °FClear.5 mph62%30.01 "Hg10 mi
8:50 pm50 °FClear.5 mph54%30.01 "Hg10 mi
8:20 pm54 °FSunny.6 mph44%30.01 "Hg10 mi
7:50 pm55 °FPassing clouds.5 mph38%30.01 "HgN/A
7:20 pm55 °FPassing clouds.3 mph38%30.01 "HgN/A
6:50 pm55 °FSunny.5 mph41%30.01 "Hg10 mi
6:20 pm55 °FPassing clouds.7 mph41%30.01 "HgN/A
5:50 pm57 °FSunny.3 mph39%30.04 "Hg10 mi
5:20 pm55 °FSunny.5 mph41%30.04 "Hg10 mi
4:50 pm55 °FSunny.5 mph41%30.04 "Hg10 mi
4:20 pm55 °FPassing clouds.10 mph41%30.04 "HgN/A
3:50 pm55 °FSunny.6 mph41%30.04 "Hg10 mi
3:20 pm54 °FPassing clouds.5 mph44%30.07 "HgN/A
2:50 pm54 °FSunny.3 mph44%30.07 "Hg10 mi
2:20 pm54 °FPartly sunny.8 mph44%30.07 "HgN/A
1:50 pm54 °FPartly sunny.7 mph47%30.07 "HgN/A
1:20 pm50 °FPartly sunny.7 mph54%30.07 "HgN/A
12:50 pm50 °FPartly sunny.3 mph50%30.09 "HgN/A
12:20 pm50 °FScattered clouds.3 mph54%30.09 "HgN/A
11:50 am48 °FPartly sunny.2 mph54%30.09 "HgN/A
11:20 am48 °FPartly sunny.2 mph54%30.09 "HgN/A
10:50 am46 °FPartly sunny.3 mph66%30.09 "HgN/A
10:20 am46 °FPartly sunny.5 mph66%30.09 "HgN/A
9:50 am48 °FScattered clouds.3 mph66%30.07 "HgN/A
9:20 am45 °FPassing clouds.2 mph76%30.07 "HgN/A
Weather by CustomWeather, © 2017

See weather overviewHow to use our weather pages